Volver al catálogo

COSMOS 374 DEB

ActivoLEO
NORAD 5240·DEBRIS·🇷🇺 Russia

Lanzado Oct 23, 1970 desde Baikonur Cosmodrome

Loading…

Próximos Pases (próximas 24 horas)

TLE

ActualizadoSource: Space-Track

Época: Sep 13, 2026, 08:08 UTC

1 05240U 70089BF  26256.33927877  .00000168  00000-0  23799-3 0  9990
2 05240  62.8727 226.9941 0824255 260.4659  90.2350 12.82459579562741

Sigue COSMOS 374 DEB en tiempo real con AllMySat

Download on the App Store